| time (UTC) | temp F | wind direction | speed MPH | gust MPH | rain 1hr in | rain 24hr in | rain mn in | humidity % | barometer mb |
| 20260505233028 | 49 | 234 | 2.0 | 7.0 | 0.00 | 0.00 | 0.00 | 74 | 1014.8 |
| 20260505231532 | 49 | 292 | 3.0 | 10.0 | 0.00 | 0.00 | 0.00 | 73 | 1015.0 |
| 20260505230048 | 49 | 360 | 3.0 | 10.0 | 0.00 | 0.00 | 0.00 | 74 | 1015.0 |
| 20260505224530 | 49 | 9 | 4.0 | 9.0 | 0.00 | 0.00 | 0.00 | 75 | 1015.0 |
| 20260505223030 | 49 | 360 | 4.0 | 11.0 | 0.00 | 0.00 | 0.00 | 76 | 1014.9 |
| 20260505221534 | 49 | 355 | 3.0 | 10.0 | 0.00 | 0.00 | 0.00 | 76 | 1015.0 |
| 20260505220027 | 49 | 325 | 4.0 | 13.0 | 0.00 | 0.00 | 0.00 | 76 | 1015.1 |
| 20260505214532 | 49 | 22 | 3.0 | 13.0 | 0.00 | 0.00 | 0.00 | 75 | 1015.2 |
| 20260505213048 | 49 | 313 | 4.0 | 11.0 | 0.00 | 0.00 | 0.00 | 74 | 1015.1 |
| 20260505211528 | 49 | 279 | 4.0 | 11.0 | 0.00 | 0.00 | 0.00 | 72 | 1015.2 |
| 20260505210030 | 49 | 340 | 3.0 | 12.0 | 0.00 | 0.00 | 0.00 | 72 | 1015.1 |
| 20260505204530 | 50 | 298 | 4.0 | 11.0 | 0.00 | 0.00 | 0.00 | 73 | 1015.0 |
| 20260505203041 | 50 | 15 | 2.0 | 8.0 | 0.00 | 0.00 | 0.00 | 74 | 1015.0 |
| 20260505201530 | 50 | 313 | 2.0 | 10.0 | 0.00 | 0.00 | 0.00 | 75 | 1015.0 |
| 20260505200035 | 50 | 5 | 2.0 | 10.0 | 0.00 | 0.00 | 0.00 | 76 | 1014.9 |
| 20260505194528 | 50 | 214 | 3.0 | 10.0 | 0.00 | 0.00 | 0.00 | 75 | 1014.9 |
| 20260505193028 | 50 | 13 | 3.0 | 11.0 | 0.00 | 0.00 | 0.00 | 76 | 1014.9 |
| 20260505191532 | 51 | 342 | 3.0 | 14.0 | 0.00 | 0.00 | 0.00 | 75 | 1014.9 |
| 20260505190032 | 50 | 310 | 4.0 | 11.0 | 0.00 | 0.00 | 0.00 | 75 | 1014.7 |
| 20260505184530 | 50 | 11 | 5.0 | 12.0 | 0.00 | 0.00 | 0.00 | 75 | 1014.7 |
| 20260505183027 | 50 | 14 | 3.0 | 11.0 | 0.00 | 0.00 | 0.00 | 75 | 1014.8 |
| 20260505181530 | 51 | 342 | 3.0 | 10.0 | 0.00 | 0.00 | 0.00 | 77 | 1014.7 |
| 20260505180030 | 51 | 49 | 4.0 | 12.0 | 0.00 | 0.00 | 0.00 | 77 | 1014.9 |
| 20260505174531 | 52 | 336 | 4.0 | 12.0 | 0.00 | 0.00 | 0.00 | 78 | 1015.0 |
| 20260505173040 | 52 | 28 | 5.0 | 11.0 | 0.00 | 0.00 | 0.00 | 76 | 1015.0 |
| 20260505171528 | 52 | 15 | 4.0 | 11.0 | 0.00 | 0.00 | 0.00 | 76 | 1015.1 |
| 20260505170029 | 53 | 9 | 5.0 | 11.0 | 0.00 | 0.00 | 0.00 | 75 | 1015.0 |
| 20260505164546 | 53 | 355 | 3.0 | 11.0 | 0.00 | 0.00 | 0.00 | 74 | 1015.2 |
| 20260505163028 | 53 | 305 | 3.0 | 10.0 | 0.00 | 0.00 | 0.00 | 74 | 1015.1 |
| 20260505161530 | 53 | 74 | 3.0 | 11.0 | 0.00 | 0.00 | 0.00 | 74 | 1015.2 |
| 20260505153044 | 55 | 319 | 3.0 | 12.0 | 0.00 | 0.00 | 0.00 | 75 | 1015.2 |
| 20260505151539 | 55 | 269 | 3.0 | 11.0 | 0.00 | 0.00 | 0.00 | 75 | 1015.2 |
| 20260505124531 | 57 | 360 | 3.0 | 10.0 | 0.00 | 0.00 | 0.00 | 71 | 1015.4 |
| 20260505123030 | 58 | 5 | 3.0 | 10.0 | 0.00 | 0.00 | 0.00 | 73 | 1015.4 |
| 20260505121531 | 58 | 76 | 3.0 | 11.0 | 0.00 | 0.00 | 0.00 | 71 | 1015.3 |
| 20260505120030 | 59 | 102 | 2.0 | 8.0 | 0.00 | 0.00 | 0.00 | 73 | 1015.4 |
| 20260505114537 | 58 | 300 | 2.0 | 13.0 | 0.00 | 0.00 | 0.00 | 75 | 1015.4 |
| 20260505113029 | 57 | 316 | 3.0 | 10.0 | 0.00 | 0.00 | 0.00 | 74 | 1015.4 |
| 20260505111533 | 57 | 351 | 3.0 | 9.0 | 0.00 | 0.00 | 0.00 | 75 | 1015.5 |
| 20260505100041 | 58 | 280 | 4.0 | 9.0 | 0.00 | 0.00 | 0.00 | 73 | 1015.5 |
| 20260505094531 | 58 | 63 | 2.0 | 8.0 | 0.00 | 0.00 | 0.00 | 75 | 1015.5 |
| 20260505093033 | 58 | 164 | 2.0 | 8.0 | 0.00 | 0.00 | 0.00 | 76 | 1015.5 |
| 20260505091527 | 57 | 286 | 2.0 | 8.0 | 0.00 | 0.00 | 0.00 | 76 | 1015.7 |
| 20260505090048 | 57 | 330 | 2.0 | 9.0 | 0.00 | 0.00 | 0.00 | 77 | 1015.6 |
| 20260505084536 | 56 | 327 | 2.0 | 10.0 | 0.00 | 0.00 | 0.00 | 78 | 1015.6 |
| 20260505083040 | 56 | 326 | 3.0 | 8.0 | 0.00 | 0.00 | 0.00 | 77 | 1015.6 |
| 20260505081548 | 56 | 121 | 3.0 | 11.0 | 0.00 | 0.00 | 0.00 | 77 | 1015.7 |
| 20260505080038 | 56 | 310 | 2.0 | 8.0 | 0.00 | 0.00 | 0.00 | 78 | 1015.5 |
| 20260505074527 | 56 | 344 | 2.0 | 8.0 | 0.00 | 0.00 | 0.00 | 79 | 1015.5 |
| 20260505073030 | 55 | 355 | 2.0 | 6.0 | 0.00 | 0.00 | 0.00 | 80 | 1015.5 |
| 20260505071531 | 54 | 292 | 1.0 | 7.0 | 0.00 | 0.00 | 0.00 | 81 | 1015.6 |
| 20260505070031 | 53 | 323 | 1.0 | 8.0 | 0.00 | 0.00 | 0.00 | 82 | 1015.5 |
| 20260505064527 | 52 | 261 | 2.0 | 10.0 | 0.00 | 0.00 | 0.00 | 83 | 1015.5 |
| 20260505063035 | 52 | 352 | 2.0 | 8.0 | 0.00 | 0.00 | 0.00 | 84 | 1015.6 |
| 20260505061538 | 51 | 257 | 2.0 | 9.0 | 0.00 | 0.00 | 0.00 | 84 | 1015.4 |
| 20260505060028 | 51 | 321 | 2.0 | 8.0 | 0.00 | 0.00 | 0.00 | 85 | 1015.4 |
| 20260505054530 | 50 | 333 | 2.0 | 9.0 | 0.00 | 0.00 | 0.00 | 85 | 1015.4 |
| 20260505053030 | 50 | 346 | 3.0 | 10.0 | 0.00 | 0.00 | 0.00 | 86 | 1015.4 |
| 20260505051530 | 50 | 304 | 2.0 | 9.0 | 0.00 | 0.00 | 0.00 | 87 | 1015.2 |
| 20260505041530 | 50 | 9 | 3.0 | 11.0 | 0.00 | 0.00 | 0.00 | 88 | 1015.1 |
| 20260505040029 | 50 | 265 | 3.0 | 8.0 | 0.00 | 0.00 | 0.00 | 87 | 1015.1 |
| 20260505034529 | 50 | 311 | 2.0 | 8.0 | 0.00 | 0.00 | 0.00 | 87 | 1015.1 |
| 20260505033035 | 50 | 0 | 3.0 | 8.0 | 0.00 | 0.00 | 0.00 | 86 | 1015.1 |
| 20260505031530 | 51 | 309 | 3.0 | 9.0 | 0.00 | 0.00 | 0.00 | 86 | 1015.2 |
| 20260505030028 | 52 | 290 | 3.0 | 10.0 | 0.00 | 0.00 | 0.00 | 85 | 1015.1 |
| 20260505024550 | 52 | 254 | 1.0 | 8.0 | 0.00 | 0.00 | 0.00 | 85 | 1015.0 |
| 20260505023038 | 52 | 308 | 3.0 | 10.0 | 0.00 | 0.00 | 0.00 | 85 | 1014.9 |
| 20260505021544 | 52 | 311 | 2.0 | 6.0 | 0.00 | 0.00 | 0.00 | 85 | 1014.8 |
| 20260505020030 | 52 | 227 | 1.0 | 12.0 | 0.00 | 0.00 | 0.00 | 85 | 1014.7 |
| 20260505014530 | 52 | 349 | 2.0 | 8.0 | 0.00 | 0.00 | 0.00 | 86 | 1015.0 |
| 20260505013029 | 52 | 13 | 2.0 | 9.0 | 0.00 | 0.00 | 0.00 | 87 | 1015.2 |
| 20260505011544 | 52 | 341 | 3.0 | 8.0 | 0.00 | 0.00 | 0.00 | 87 | 1015.3 |
| 20260505010030 | 52 | 327 | 2.0 | 8.0 | 0.00 | 0.00 | 0.00 | 87 | 1015.3 |
| 20260505004537 | 51 | 345 | 2.0 | 7.0 | 0.00 | 0.00 | 0.00 | 87 | 1015.5 |
| 20260505003028 | 51 | 14 | 2.0 | 8.0 | 0.00 | 0.00 | 0.00 | 86 | 1015.5 |
| 20260505001531 | 52 | 306 | 1.0 | 4.0 | 0.00 | 0.00 | 0.00 | 86 | 1015.5 |
| 20260505000032 | 52 | 303 | 2.0 | 5.0 | 0.00 | 0.00 | 0.00 | 86 | 1015.6 |
| 20260504234528 | 52 | 324 | 2.0 | 9.0 | 0.00 | 0.00 | 0.00 | 86 | 1015.6 |